Weather History for Baudette, MN

Change the Weather History Date:

Thursday, May 14, 2009

  Actual Average Record
Temperature  
Mean Temperature 34 °F -  
Max Temperature 43 °F 67 °F 89 °F (1977)
Min Temperature 26 °F 40 °F 23 °F (1945)
Degree Days  
Heating Degree Days 31    
Moisture  
Dew Point 25 °F    
Average Humidity 76    
Maximum Humidity 93    
Minimum Humidity 58    
Precipitation  
Precipitation 0.00 in - - ()
Sea Level Pressure  
Sea Level Pressure 29.93 in    
Wind  
Wind Speed 15 mph (NW)    
Max Wind Speed 23 mph    
Max Gust Speed 36 mph    
Visibility 10 miles    
Events      
Averages and records for this station are not official NWS values.
T = Trace of Precipitation, MM = Missing Value Source: NWS Daily Summary

Daily Weather History Graph

Daily Weather History Graph

Search for Another Location

Airport:

Trip Planner

Search our weather history database for the weather conditions in past years. The results will help you decide how hot, cold, wet, or windy it might be!

Date:

Astronomy

May. 14, 2009 Rise Set
Actual Time 5:38 AM CDT 8:52 PM CDT
Civil Twilight 5:00 AM CDT 9:30 PM CDT
Nautical Twilight 4:11 AM CDT 10:19 PM CDT
Astronomical Twilight 3:08 AM CDT 11:23 PM CDT
Moon 1:14 AM CDT (5/14) 9:44 AM CDT (5/14)
Length of Visible Light 16h 29m
Length of Day
15h 14m
Waning Gibbous, 74% of the Moon is Illuminated
May 14
Waning Gibbous
May 17
Last Quarter
May 24
New
May 30
First Quarter
Jun 7
Full

Hourly Weather History & Observations

Time (CDT) Temp. Windchill Dew Point Humidity Pressure Visibility Wind Dir Wind Speed Gust Speed Precip Events Conditions
12:53 AM 30.9 °F 19.4 °F 27.0 °F 85% 29.68 in 10.0 mi NW 17.3 mph 29.9 mph 0.00 in   Overcast
1:20 AM 30.2 °F 17.1 °F 26.6 °F 86% 29.68 in 10.0 mi NW 21.9 mph 28.8 mph N/A   Overcast
1:53 AM 30.0 °F 19.1 °F 26.1 °F 85% 29.72 in 10.0 mi WNW 15.0 mph 24.2 mph N/A   Overcast
2:14 AM 28.4 °F 14.4 °F 26.6 °F 93% 29.71 in 10.0 mi NW 23.0 mph 35.7 mph N/A   Overcast
2:36 AM 28.4 °F 16.6 °F 24.8 °F 86% 29.73 in 10.0 mi NW 16.1 mph 28.8 mph N/A   Overcast
2:53 AM 28.9 °F 18.2 °F 25.0 °F 85% 29.76 in 10.0 mi WNW 13.8 mph 29.9 mph N/A   Overcast
3:53 AM 28.0 °F 14.9 °F 23.0 °F 81% 29.79 in 10.0 mi WNW 19.6 mph 28.8 mph N/A   Overcast
4:09 AM 28.4 °F 15.1 °F 23.0 °F 80% 29.77 in 10.0 mi NW 20.7 mph 28.8 mph N/A   Overcast
4:53 AM 28.0 °F 15.3 °F 23.0 °F 81% 29.83 in 10.0 mi NW 18.4 mph 27.6 mph N/A   Overcast
5:09 AM 26.6 °F 12.4 °F 24.8 °F 93% 29.80 in 10.0 mi NW 21.9 mph 29.9 mph N/A   Overcast
5:48 AM 26.6 °F 13.8 °F 21.2 °F 80% 29.82 in 10.0 mi NW 17.3 mph 28.8 mph N/A   Overcast
5:53 AM 27.0 °F 14.7 °F 21.0 °F 78% 29.86 in 10.0 mi WNW 16.1 mph 26.5 mph N/A   Overcast
6:53 AM 27.0 °F 15.2 °F 21.0 °F 78% 29.89 in 10.0 mi WNW 15.0 mph 26.5 mph N/A   Overcast
7:53 AM 27.0 °F 15.6 °F 21.0 °F 78% 29.92 in 10.0 mi NW 13.8 mph 24.2 mph N/A   Overcast
8:53 AM 28.0 °F 16.5 °F 21.9 °F 78% 29.96 in 10.0 mi NW 15.0 mph 25.3 mph N/A   Overcast
9:53 AM 28.0 °F 17.5 °F 21.9 °F 78% 29.99 in 10.0 mi WNW 12.7 mph 20.7 mph N/A   Overcast
10:53 AM 28.0 °F 18.1 °F 21.9 °F 78% 30.01 in 10.0 mi WNW 11.5 mph 20.7 mph N/A   Overcast
11:53 AM 30.0 °F 20.5 °F 23.0 °F 75% 30.03 in 10.0 mi WNW 11.5 mph 21.9 mph N/A   Overcast
12:53 PM 32.0 °F 25.6 °F 24.1 °F 73% 30.06 in 10.0 mi Variable 6.9 mph 16.1 mph N/A   Overcast
1:53 PM 34.0 °F 28.8 °F 25.0 °F 70% 30.09 in 10.0 mi Variable 5.8 mph - N/A   Overcast
2:53 PM 36.0 °F 33.3 °F 26.1 °F 67% 30.09 in 10.0 mi Variable 3.5 mph - N/A   Overcast
3:53 PM 37.9 °F 34.4 °F 26.1 °F 62% 30.09 in 10.0 mi NNW 4.6 mph - N/A   Overcast
4:53 PM 39.9 °F - 27.0 °F 60% 30.09 in 10.0 mi Calm Calm - N/A   Mostly Cloudy
5:53 PM 42.1 °F 39.2 °F 28.0 °F 58% 30.08 in 10.0 mi East 4.6 mph - N/A   Clear
6:53 PM 42.1 °F 38.4 °F 28.9 °F 60% 30.07 in 10.0 mi East 5.8 mph - N/A   Clear
7:53 PM 41.0 °F 37.1 °F 28.9 °F 62% 30.06 in 10.0 mi East 5.8 mph - N/A   Clear
8:53 PM 39.0 °F 35.7 °F 28.9 °F 67% 30.07 in 10.0 mi ENE 4.6 mph - N/A   Partly Cloudy
9:53 PM 37.9 °F 34.4 °F 28.0 °F 68% 30.08 in 10.0 mi SE 4.6 mph - N/A   Mostly Cloudy
10:53 PM 36.0 °F 30.3 °F 28.0 °F 73% 30.07 in 10.0 mi East 6.9 mph - N/A   Clear
11:53 PM 36.0 °F 30.3 °F 28.0 °F 73% 30.05 in 10.0 mi East 6.9 mph - N/A   Partly Cloudy